North Vernon, Indiana, United States (47265)
Lat: 39.01N, Lon: 85.62W
Wx Zone: INZ072
Local Info
Past Weather Observations for Friday, July 25, 2014

NOTE: This archive is for the closest National Weather Service station to North Vernon. Information may differ from the station used for current weather conditions.

Click here for Long-term Archive

Time Weather Temperature Dewpoint Humidity Pressure Winds Precip Visibility
23:53
Overcast
70°F / 21°C 63°F / 17°C 78% 30.01 in
(1016 mb)
S 4.6 mph
(S 7 kph)
- 10SM
22:53
Overcast
70°F / 21°C 64°F / 18°C 83% 30.01 in
(1016 mb)
Calm - 10SM
21:53
Overcast
68°F / 20°C 63°F / 17°C 83% 30.01 in
(1016 mb)
Calm - 10SM
20:53
Mostly Cloudy
68°F / 20°C 63°F / 17°C 83% 30.01 in
(1016 mb)
Calm - 10SM
19:53
Clear
70°F / 21°C 61°F / 16°C 73% 29.98 in
(1015 mb)
SE 4.6 mph
(SE 7 kph)
- 10SM
18:53
Clear
73°F / 23°C 59°F / 15°C 61% 29.98 in
(1015 mb)
SSE 5.8 mph
(SSE 9 kph)
- 10SM
17:53
Clear
73°F / 23°C 61°F / 16°C 65% 29.98 in
(1015 mb)
SE 6.9 mph
(SE 11 kph)
- 10SM
16:53
Mostly Cloudy
73°F / 23°C 61°F / 16°C 65% 30.01 in
(1016 mb)
SSE 4.6 mph
(SSE 7 kph)
- 10SM
15:53
Partly Cloudy
73°F / 23°C 57°F / 14°C 57% 30.01 in
(1016 mb)
S 4.6 mph
(S 7 kph)
- 10SM
14:53
Partly Cloudy
75°F / 24°C 57°F / 14°C 54% 30.04 in
(1017 mb)
SW 6.9 mph
(SW 11 kph)
- 10SM
13:53
Clear
75°F / 24°C 57°F / 14°C 54% 30.06 in
(1018 mb)
SSE 8.1 mph
(SSE 13 kph)
- 10SM
12:53
Clear
75°F / 24°C 57°F / 14°C 54% 30.06 in
(1018 mb)
SSE 9.2 mph
(SSE 15 kph)
- 10SM
11:53
Clear
75°F / 24°C 55°F / 13°C 50% 30.09 in
(1019 mb)
Variable 3.5 mph
(Variable 6 kph)
- 10SM
10:53
Clear
73°F / 23°C 55°F / 13°C 53% 30.09 in
(1019 mb)
SSE 3.5 mph
(SSE 6 kph)
- 10SM
09:53
Clear
72°F / 22°C 57°F / 14°C 61% 30.12 in
(1020 mb)
Calm - 10SM
08:53
Clear
66°F / 19°C 57°F / 14°C 73% 30.12 in
(1020 mb)
Calm - 10SM
07:53
Clear
63°F / 17°C 55°F / 13°C 77% 30.09 in
(1019 mb)
SSE 4.6 mph
(SSE 7 kph)
- 10SM
06:53
Clear
Fog And Mist
57°F / 14°C 54°F / 12°C 88% 30.09 in
(1019 mb)
E 4.6 mph
(E 7 kph)
- 4SM
05:53
Clear
Fog And Mist
54°F / 12°C 52°F / 11°C 94% 30.12 in
(1020 mb)
Calm - 4SM
04:53
Clear
Fog And Mist
54°F / 12°C 52°F / 11°C 94% 30.09 in
(1019 mb)
Calm - 6SM
03:53
Clear
55°F / 13°C 52°F / 11°C 88% 30.09 in
(1019 mb)
Calm - 8SM
02:53
Clear
55°F / 13°C 52°F / 11°C 88% 30.06 in
(1018 mb)
Calm - 10SM
01:53
Clear
57°F / 14°C 54°F / 12°C 88% 30.06 in
(1018 mb)
E 5.8 mph
(E 9 kph)
- 10SM
00:53
Clear
57°F / 14°C 54°F / 12°C 88% 30.06 in
(1018 mb)
Calm - 10SM
Time Weather Temperature Dewpoint Humidity Pressure Winds Precip Visibility


Weather for websites

WeatherForYou.com, LLC is not responsible for any damages or problems caused by this service. Current weather conditions are obtained from the closest station including government and personal stations which may have varying degrees of accuracy. Weather forecasts are derived from the NOAA NDFD. Like all things, this site belongs to Jesus Christ... He just trusts me to maintain it. If you have any questions or comments email webmaster@weatherforyou.com

Copyright © 2014, WeatherForYou.com LLC. All rights reserved.